THOR AGENA B DEB, 1948

Orbit data source: Space-Track

THOR AGENA B DEB, 1948 is space debris in LEO originally from a launch on Mon, 29 Nov 1965 UTC launched from the Air Force Western Test Range (AFWTR). Debris objects in space refer to the collection of defunct objects orbiting the Earth. Examples of debris include non-operational satellites, rocket bodies, and fragments generated from explosions, collisions, or faulty payload assembly.

Loading next visibility...
Identifier
1948, 1965-098F
Orbit
LEO
Country
Flag of USUS
Related business
Manufacturer
Unknown
Mission
Spacecraft
Bus & Motor
Unknown
Mass
~1 kg wet, ~1 kg dry
Launch date (UTC)
1965-11-29 (60 years ago)
Launch vehicle
Unknown
Launch site
Air Force Western Test Range (AFWTR)
Object type
Payload
Rocket body
Debris
Shape & HBR
Unknown
Radar Cross Section
Medium (>0.1 m² and <1 m²)

Expand to show TLE details & history
Last TLE update: 9 hours ago

TLE from 9 hours ago
0 THOR AGENA B DEB
1 01948U 65098F   26119.61480289  .00004894  00000-0  88647-3 0  9998
2 01948  79.8458 327.2690 0751746  15.7586 346.5613 13.60869528802563
Epoch: 2026-04-29T14:45Z
TLE epoch observation values (Epoch: 2026-04-29T14:45:18.969Z)
Latitude
-0.00007°
Longitude
-111.63328°
Altitude
495.921 km
Speed
7.889 km/s
True Right ascension
21h 49m 04s
True Declination
0° 00' 00"
Sunlit
Object was in daylight at epoch
Visualization orbit readout
Latitude
Unknown
Longitude
Unknown
Altitude
Unknown
Speed
Unknown
Apparent Right ascension
Unknown
Apparent Declination
Unknown
Sunlit
N/A
Visualization observer readout
Local Sidereal Time
07:45:07
Azimuth
Unknown
Elevation
Unknown
Doppler factor
Unknown
Orbital elements
Apogee altitude
1,586.712 km
Perigee altitude
472.931 km
Semi-major axis
7,407.959 km
Eccentricity
0.07517
Inclination
79.8458°
RAAN
327.269°
Arg. of periapsis
15.7586°
True anomaly
344.35936°
Mean anomaly
346.5613°
Eccentric anomaly
345.48152°
Mean motion
3.40405 °/min
Orbital period
105.76 mins
BSTAR
0.00088647
Loading maneuver chart data...
Computing Atmospheric mass density...
Loading historical data...
Loading historical data...
Loading historical data...
Loading historical data...
Loading historical data...
Loading historical data...
Loading historical data...

Documentation

Showing up to 5 results
|